CW4352 Weather Reports


time (UTC)temp
C
wind
direction
speed
KPH
gust
KPH
rain 1hr
cm
rain 24hr
cm
rain mn
cm
humidity
%
barometer
mb
20200407041704 8 269 3.2 4.8 0.00 0.00 0.00 52 1023.9
20200407041203 8 257 3.2 4.8 0.00 0.00 0.00 52 1023.9
20200407040705 8 274 4.8 11.3 0.00 0.00 0.00 52 1023.9
20200407040204 8 265 4.8 8.0 0.00 0.00 0.00 53 1023.9
20200407034704 8 276 4.8 8.0 0.00 0.00 0.00 53 1023.9
20200407034204 8 276 4.8 4.8 0.00 0.00 0.00 52 1023.9
20200407033705 8 266 3.2 4.8 0.00 0.00 0.00 52 1023.9
20200407033204 8 259 3.2 8.0 0.00 0.00 0.00 52 1023.9
20200407031705 9 272 4.8 4.8 0.00 0.00 0.00 50 1024.0
20200407030204 9 277 8.0 9.7 0.00 0.00 0.00 50 1024.0
20200407024704 10 254 4.8 11.3 0.00 0.00 0.00 49 1024.0
20200407023705 9 276 3.2 4.8 0.00 0.00 0.00 50 1024.0
20200407023204 10 272 3.2 8.0 0.00 0.00 0.00 50 1024.0
20200407021204 10 271 4.8 8.0 0.00 0.00 0.00 49 1024.0
20200407020705 10 280 6.4 8.0 0.00 0.00 0.00 49 1024.0
20200407020204 10 269 4.8 9.7 0.00 0.00 0.00 49 1024.0
20200407014704 10 274 4.8 8.0 0.00 0.00 0.00 49 1024.0
20200407013705 10 274 4.8 8.0 0.00 0.00 0.00 49 1023.9
20200407013204 10 274 4.8 4.8 0.00 0.00 0.00 48 1023.9
20200407011704 10 278 3.2 4.8 0.00 0.00 0.00 48 1023.9
20200407011204 10 273 4.8 4.8 0.00 0.00 0.00 48 1023.9
20200407010204 10 276 4.8 8.0 0.00 0.00 0.00 48 1023.9
20200407004204 11 270 4.8 8.0 0.00 0.00 0.00 47 1024.0
20200407000711 11 243 8.0 11.3 0.00 0.00 0.00 46 1024.0
20200407000209 11 263 8.0 11.3 0.00 0.00 0.00 46 1024.0
20200406234704 11 269 6.4 8.0 0.00 0.00 0.00 47 1024.0
20200406233705 11 271 4.8 4.8 0.00 0.00 0.00 46 1023.9
20200406233204 11 253 3.2 9.7 0.00 0.00 0.00 46 1023.9
20200406231704 11 248 6.4 11.3 0.00 0.00 0.00 46 1023.9
20200406231204 11 265 6.4 9.7 0.00 0.00 0.00 46 1023.9
20200406230704 11 264 8.0 12.9 0.00 0.00 0.00 45 1023.8
20200406230204 11 275 4.8 11.3 0.00 0.00 0.00 46 1023.8
20200406224205 11 245 4.8 12.9 0.00 0.00 0.00 46 1023.7
20200406223205 11 282 3.2 9.7 0.00 0.00 0.00 45 1023.7
20200406221705 12 264 4.8 9.7 0.00 0.00 0.00 45 1023.7
20200406221204 12 264 8.0 16.1 0.00 0.00 0.00 44 1023.7
20200406220204 12 270 4.8 11.3 0.00 0.00 0.00 44 1023.5
20200406214704 12 232 3.2 4.8 0.00 0.00 0.00 43 1023.5
20200406214204 12 248 4.8 4.8 0.00 0.00 0.00 43 1023.5
20200406211705 12 261 4.8 9.7 0.00 0.00 0.00 43 1023.4
20200406211204 12 243 9.7 11.3 0.00 0.00 0.00 43 1023.4
20200406204705 13 215 4.8 8.0 0.00 0.00 0.00 40 1023.4
20200406204204 13 209 4.8 8.0 0.00 0.00 0.00 39 1023.4
20200406203706 13 209 3.2 4.8 0.00 0.00 0.00 39 1023.4
20200406201704 14 273 3.2 4.8 0.00 0.00 0.00 37 1023.4
20200406200204 14 279 3.2 4.8 0.00 0.00 0.00 37 1023.2
20200406193705 15 277 3.2 4.8 0.00 0.00 0.00 35 1023.1
20200406190204 15 260 3.2 4.8 0.00 0.00 0.00 32 1022.7
20200406183705 15 298 3.2 4.8 0.00 0.00 0.00 32 1021.8
20200406181704 16 65 0.0 0.0 0.00 0.00 0.00 31 1021.8
20200406180705 16 65 0.0 0.0 0.00 0.00 0.00 29 1021.8
20200406180204 17 65 0.0 0.0 0.00 0.00 0.00 29 1021.8
20200406174705 17 65 0.0 0.0 0.00 0.00 0.00 27 1021.7
20200406174205 17 65 0.0 3.2 0.00 0.00 0.00 27 1021.7
20200406173205 17 65 1.6 4.8 0.00 0.00 0.00 28 1021.5
20200406170705 17 65 3.2 8.0 0.00 0.00 0.00 28 1021.4
20200406170204 17 65 6.4 12.9 0.00 0.00 0.00 28 1021.4
20200406164704 18 83 3.2 8.0 0.00 0.00 0.00 27 1021.4
20200406164204 18 117 1.6 4.8 0.00 0.00 0.00 28 1021.4
20200406163706 18 117 3.2 11.3 0.00 0.00 0.00 27 1021.4
20200406163204 18 116 8.0 12.9 0.00 0.00 0.00 28 1021.4
20200406161752 18 88 0.0 9.7 0.00 0.00 0.00 29 1021.3
20200406161205 18 89 1.6 9.7 0.00 0.00 0.00 28 1021.6
20200406160205 18 107 3.2 12.9 0.00 0.00 0.00 28 1021.6
20200406154705 18 91 4.8 12.9 0.00 0.00 0.00 28 1021.6
20200406154205 18 53 3.2 9.7 0.00 0.00 0.00 28 1021.6
20200406153704 18 79 8.0 12.9 0.00 0.00 0.00 28 1021.6
20200406153205 18 107 3.2 16.1 0.00 0.00 0.00 28 1021.6
20200406151703 18 46 4.8 9.7 0.00 0.00 0.00 29 1021.6
20200406151203 18 33 4.8 11.3 0.00 0.00 0.00 30 1021.8
20200406150705 18 90 9.7 12.9 0.00 0.00 0.00 28 1021.8
20200406150205 18 113 11.3 19.3 0.00 0.00 0.00 28 1021.8
20200406144705 18 137 9.7 14.5 0.00 0.00 0.00 27 1021.8
20200406144205 18 76 6.4 14.5 0.00 0.00 0.00 28 1021.8
20200406143204 18 88 11.3 20.9 0.00 0.00 0.00 28 1021.8
20200406141704 18 96 11.3 16.1 0.00 0.00 0.00 27 1021.9
20200406141204 18 130 9.7 22.5 0.00 0.00 0.00 27 1021.9
20200406140704 18 116 3.2 16.1 0.00 0.00 0.00 30 1021.9
20200406140204 18 92 11.3 19.3 0.00 0.00 0.00 29 1021.9
20200406134703 18 67 11.3 16.1 0.00 0.00 0.00 28 1022.1
20200406134204 18 95 9.7 19.3 0.00 0.00 0.00 27 1022.1
20200406133706 18 114 8.0 14.5 0.00 0.00 0.00 28 1022.3
20200406130705 17 26 9.7 14.5 0.00 0.00 0.00 30 1022.3
20200406130204 17 47 11.3 20.9 0.00 0.00 0.00 31 1022.3
20200406124705 17 105 3.2 19.3 0.00 0.00 0.00 32 1022.4
20200406124204 17 63 6.4 16.1 0.00 0.00 0.00 30 1022.4
20200406123705 17 62 9.7 14.5 0.00 0.00 0.00 30 1022.6
20200406123205 17 20 8.0 19.3 0.00 0.00 0.00 32 1022.6
20200406121705 17 45 9.7 19.3 0.00 0.00 0.00 31 1022.6
20200406120705 17 57 1.6 12.9 0.00 0.00 0.00 31 1022.6
20200406120205 17 17 0.0 19.3 0.00 0.00 0.00 33 1022.6
20200406114705 17 94 4.8 12.9 0.00 0.00 0.00 31 1022.6
20200406114205 17 53 6.4 19.3 0.00 0.00 0.00 31 1022.6
20200406113705 17 51 4.8 14.5 0.00 0.00 0.00 32 1022.8
20200406113204 17 88 4.8 16.1 0.00 0.00 0.00 31 1022.8
20200406111704 17 42 3.2 12.9 0.00 0.00 0.00 35 1022.8
20200406110705 17 356 9.7 14.5 0.00 0.00 0.00 35 1022.8
20200406104704 17 29 9.7 16.1 0.00 0.00 0.00 33 1022.9
20200406103705 16 29 3.2 14.5 0.00 0.00 0.00 34 1022.9
20200406103205 16 63 4.8 16.1 0.00 0.00 0.00 33 1022.8
20200406101204 16 355 4.8 12.9 0.00 0.00 0.00 35 1023.0
20200406100705 16 30 4.8 11.3 0.00 0.00 0.00 37 1023.0
20200406100204 16 28 8.0 14.5 0.00 0.00 0.00 36 1023.0
20200406094705 16 26 8.0 14.5 0.00 0.00 0.00 40 1023.0
20200406094205 16 22 8.0 14.5 0.00 0.00 0.00 40 1023.0
20200406093705 15 40 6.4 11.3 0.00 0.00 0.00 41 1023.1
20200406091204 15 30 9.7 12.9 0.00 0.00 0.00 40 1023.2
20200406090704 15 37 6.4 11.3 0.00 0.00 0.00 41 1023.2
20200406090204 15 19 4.8 11.3 0.00 0.00 0.00 39 1023.1
20200406084702 15 142 1.6 4.8 0.00 0.00 0.00 40 1023.0
20200406083703 15 143 1.6 4.8 0.00 0.00 0.00 39 1023.0
20200406081703 14 144 0.0 0.0 0.00 0.00 0.00 40 1023.0
20200406081203 13 144 0.0 0.0 0.00 0.00 0.00 40 1023.0
20200406080704 13 144 0.0 0.0 0.00 0.00 0.00 40 1023.0
20200406080204 13 144 0.0 11.3 0.00 0.00 0.00 42 1022.9
20200406074703 12 271 0.0 4.8 0.00 0.00 0.00 43 1022.8
20200406074204 12 271 0.0 0.0 0.00 0.00 0.00 45 1022.8
20200406073704 12 271 0.0 0.0 0.00 0.00 0.00 46 1022.8
20200406073203 12 271 0.0 0.0 0.00 0.00 0.00 46 1022.8
20200406071703 11 272 0.0 0.0 0.00 0.00 0.00 49 1022.7
20200406071203 11 272 0.0 0.0 0.00 0.00 0.00 47 1022.7
20200406070704 11 272 0.0 0.0 0.00 0.00 0.00 47 1022.7
20200406061705 8 272 3.2 4.8 0.00 0.00 0.00 53 1022.4
20200406061203 8 272 3.2 4.8 0.00 0.00 0.00 53 1022.4
20200406053703 7 273 4.8 8.0 0.00 0.00 0.00 48 1022.1
20200406053203 7 268 4.8 8.0 0.00 0.00 0.00 48 1022.1
20200406051703 7 259 3.2 4.8 0.00 0.00 0.00 48 1021.8
20200406051203 7 252 4.8 4.8 0.00 0.00 0.00 49 1021.8
20200406050703 7 263 3.2 4.8 0.00 0.00 0.00 49 1021.8
20200406044704 7 265 3.2 4.8 0.00 0.00 0.00 50 1021.5
20200406044204 7 265 4.8 9.7 0.00 0.00 0.00 50 1021.5
20200406043203 7 265 6.4 9.7 0.00 0.00 0.00 50 1021.3